Time,TemperatureF,DewpointF,PressureIn,WindDirection,WindDirectionDegrees,WindSpeedMPH,WindSpeedGustMPH,Humidity,HourlyPrecipIn,Conditions,Clouds,dailyrainin,SoftwareType,DateUTC
2013-04-23 00:00:00,42.2,35.5,30.56,SE,139,3.0,8.0,77,0.00,,,0.00,Wunderground v.1.15,2013-04-23 04:00:00,
2013-04-23 00:05:00,42.2,35.8,30.56,East,79,3.0,8.0,78,0.00,,,0.00,Wunderground v.1.15,2013-04-23 04:05:00,
2013-04-23 00:10:00,42.3,35.9,30.56,ENE,77,4.0,8.0,78,0.00,,,0.00,Wunderground v.1.15,2013-04-23 04:10:00,
2013-04-23 00:15:00,42.3,35.9,30.55,East,82,5.0,8.0,78,0.00,,,0.00,Wunderground v.1.15,2013-04-23 04:15:00,
2013-04-23 00:20:00,42.4,36.0,30.55,ENE,57,4.0,8.0,78,0.00,,,0.00,Wunderground v.1.15,2013-04-23 04:20:00,
2013-04-23 00:25:00,42.4,36.0,30.55,ENE,77,4.0,8.0,78,0.00,,,0.00,Wunderground v.1.15,2013-04-23 04:25:00,
2013-04-23 00:30:00,42.4,36.0,30.55,ENE,66,3.0,8.0,78,0.00,,,0.00,Wunderground v.1.15,2013-04-23 04:30:00,
2013-04-23 00:40:00,42.4,36.3,30.54,ENE,68,4.0,4.0,79,0.00,,,0.00,Wunderground v.1.15,2013-04-23 04:40:00,
2013-04-23 00:45:00,42.4,36.3,30.54,ENE,59,4.0,8.0,79,0.00,,,0.00,Wunderground v.1.15,2013-04-23 04:45:00,
2013-04-23 00:50:00,42.4,36.0,30.54,East,91,5.0,5.0,78,0.00,,,0.00,Wunderground v.1.15,2013-04-23 04:50:00,
2013-04-23 00:55:00,42.5,36.1,30.54,ENE,67,4.0,6.0,78,0.00,,,0.00,Wunderground v.1.15,2013-04-23 04:55:00,
2013-04-23 01:00:00,42.4,36.3,30.54,SSE,150,4.0,4.0,79,0.00,,,0.00,Wunderground v.1.15,2013-04-23 05:00:00,
2013-04-23 01:10:00,42.5,36.4,30.53,ENE,68,4.0,4.0,79,0.00,,,0.00,Wunderground v.1.15,2013-04-23 05:10:00,
2013-04-23 01:15:00,42.5,36.8,30.53,ENE,64,4.0,13.0,80,0.00,,,0.00,Wunderground v.1.15,2013-04-23 05:15:00,
2013-04-23 01:20:00,42.5,36.8,30.53,ENE,75,4.0,13.0,80,0.00,,,0.00,Wunderground v.1.15,2013-04-23 05:20:00,
2013-04-23 01:25:00,42.5,36.8,30.53,North,3,4.0,13.0,80,0.00,,,0.00,Wunderground v.1.15,2013-04-23 05:25:00,
2013-04-23 01:30:00,42.5,36.8,30.52,East,95,3.0,13.0,80,0.00,,,0.00,Wunderground v.1.15,2013-04-23 05:30:00,
2013-04-23 01:35:00,42.5,36.8,30.52,NNE,16,3.0,13.0,80,0.00,,,0.00,Wunderground v.1.15,2013-04-23 05:35:00,
2013-04-23 01:40:00,42.5,36.8,30.52,ENE,71,2.0,13.0,80,0.00,,,0.00,Wunderground v.1.15,2013-04-23 05:40:00,
2013-04-23 01:45:00,42.5,37.1,30.52,ENE,78,3.0,13.0,81,0.00,,,0.00,Wunderground v.1.15,2013-04-23 05:45:00,
2013-04-23 01:55:00,42.5,37.1,30.51,NE,37,3.0,13.0,81,0.00,,,0.00,Wunderground v.1.15,2013-04-23 05:55:00,
2013-04-23 02:00:00,42.6,37.2,30.51,ENE,74,3.0,7.0,81,0.00,,,0.00,Wunderground v.1.15,2013-04-23 06:00:00,
2013-04-23 02:10:00,42.6,37.5,30.50,ENE,78,3.0,7.0,82,0.00,,,0.00,Wunderground v.1.15,2013-04-23 06:10:00,
2013-04-23 02:15:00,42.6,37.5,30.50,NE,34,3.0,7.0,82,0.00,,,0.00,Wunderground v.1.15,2013-04-23 06:15:00,
2013-04-23 02:20:00,42.6,37.5,30.50,NE,42,3.0,7.0,82,0.00,,,0.00,Wunderground v.1.15,2013-04-23 06:20:00,
2013-04-23 02:30:00,42.5,37.7,30.49,East,99,3.0,7.0,83,0.00,,,0.00,Wunderground v.1.15,2013-04-23 06:30:00,
2013-04-23 02:35:00,42.4,37.9,30.49,ENE,77,4.0,7.0,84,0.00,,,0.00,Wunderground v.1.15,2013-04-23 06:35:00,
2013-04-23 02:40:00,42.4,38.2,30.49,ENE,64,4.0,7.0,85,0.00,,,0.00,Wunderground v.1.15,2013-04-23 06:40:00,
2013-04-23 02:45:00,42.3,38.4,30.49,ENE,57,4.0,7.0,86,0.00,,,0.00,Wunderground v.1.15,2013-04-23 06:45:00,
2013-04-23 02:50:00,42.2,38.6,30.49,ENE,73,4.0,4.0,87,0.00,,,0.00,Wunderground v.1.15,2013-04-23 06:50:00,
2013-04-23 02:55:00,42.0,38.7,30.48,ENE,70,3.0,7.0,88,0.00,,,0.00,Wunderground v.1.15,2013-04-23 06:55:00,
2013-04-23 03:05:00,41.8,38.8,30.48,North,360,3.0,10.0,89,0.00,,,0.00,Wunderground v.1.15,2013-04-23 07:05:00,
2013-04-23 03:10:00,41.8,39.1,30.48,East,84,3.0,3.0,90,0.00,,,0.00,Wunderground v.1.15,2013-04-23 07:10:00,
2013-04-23 03:15:00,41.8,39.1,30.48,NE,56,3.0,5.0,90,0.00,,,0.00,Wunderground v.1.15,2013-04-23 07:15:00,
2013-04-23 03:20:00,41.7,39.3,30.47,East,86,3.0,10.0,91,0.00,,,0.00,Wunderground v.1.15,2013-04-23 07:20:00,
2013-04-23 03:25:00,41.7,39.3,30.47,ENE,71,3.0,10.0,91,0.00,,,0.00,Wunderground v.1.15,2013-04-23 07:25:00,
2013-04-23 03:30:00,41.7,39.3,30.47,East,84,3.0,3.0,91,0.00,,,0.00,Wunderground v.1.15,2013-04-23 07:30:00,
2013-04-23 03:40:00,41.7,39.5,30.47,ENE,77,3.0,10.0,92,0.00,,,0.00,Wunderground v.1.15,2013-04-23 07:40:00,
2013-04-23 03:45:00,41.7,39.5,30.47,NE,46,3.0,10.0,92,0.00,,,0.00,Wunderground v.1.15,2013-04-23 07:45:00,
2013-04-23 03:50:00,41.7,39.5,30.47,NE,50,3.0,3.0,92,0.00,,,0.00,Wunderground v.1.15,2013-04-23 07:50:00,
2013-04-23 03:55:00,41.8,39.6,30.47,ENE,77,3.0,5.0,92,0.00,,,0.00,Wunderground v.1.15,2013-04-23 07:55:00,
2013-04-23 04:00:00,41.9,39.7,30.47,ENE,76,3.0,9.0,92,0.00,,,0.00,Wunderground v.1.15,2013-04-23 08:00:00,
2013-04-23 04:10:00,41.9,39.7,30.47,NE,55,3.0,3.0,92,0.00,,,0.00,Wunderground v.1.15,2013-04-23 08:10:00,
2013-04-23 04:15:00,42.0,39.8,30.47,North,6,3.0,4.0,92,0.00,,,0.00,Wunderground v.1.15,2013-04-23 08:15:00,
2013-04-23 04:20:00,42.0,39.8,30.47,ENE,76,3.0,3.0,92,0.00,,,0.00,Wunderground v.1.15,2013-04-23 08:20:00,
2013-04-23 04:25:00,42.0,40.1,30.46,ENE,58,3.0,9.0,93,0.00,,,0.00,Wunderground v.1.15,2013-04-23 08:25:00,
2013-04-23 04:30:00,42.1,40.2,30.46,ENE,64,2.0,9.0,93,0.00,,,0.00,Wunderground v.1.15,2013-04-23 08:30:00,
2013-04-23 04:35:00,42.1,40.2,30.46,East,89,3.0,9.0,93,0.00,,,0.00,Wunderground v.1.15,2013-04-23 08:35:00,
2013-04-23 04:40:00,42.1,40.2,30.46,NNE,33,3.0,3.0,93,0.00,,,0.00,Wunderground v.1.15,2013-04-23 08:40:00,
2013-04-23 04:45:00,42.1,40.2,30.46,NNE,28,3.0,4.0,93,0.00,,,0.00,Wunderground v.1.15,2013-04-23 08:45:00,
2013-04-23 04:50:00,42.1,39.9,30.46,North,4,4.0,9.0,92,0.00,,,0.00,Wunderground v.1.15,2013-04-23 08:50:00,
2013-04-23 05:00:00,42.1,40.2,30.46,NE,43,3.0,13.0,93,0.00,,,0.00,Wunderground v.1.15,2013-04-23 09:00:00,
2013-04-23 05:10:00,42.1,40.2,30.45,NE,56,3.0,13.0,93,0.00,,,0.00,Wunderground v.1.15,2013-04-23 09:10:00,
2013-04-23 05:15:00,42.2,40.3,30.45,NE,37,3.0,13.0,93,0.00,,,0.00,Wunderground v.1.15,2013-04-23 09:15:00,
2013-04-23 05:25:00,42.2,40.3,30.45,ENE,67,3.0,13.0,93,0.00,,,0.01,Wunderground v.1.15,2013-04-23 09:25:00,
2013-04-23 05:30:00,42.2,40.3,30.45,NE,44,3.0,13.0,93,0.00,,,0.01,Wunderground v.1.15,2013-04-23 09:30:00,
2013-04-23 05:35:00,42.2,40.3,30.45,NNE,18,3.0,13.0,93,0.00,,,0.01,Wunderground v.1.15,2013-04-23 09:35:00,
2013-04-23 05:45:00,42.3,40.4,30.44,North,7,4.0,13.0,93,0.00,,,0.02,Wunderground v.1.15,2013-04-23 09:45:00,
2013-04-23 05:50:00,42.3,40.4,30.44,NNE,19,3.0,13.0,93,0.00,,,0.02,Wunderground v.1.15,2013-04-23 09:50:00,
2013-04-23 05:55:00,42.3,40.4,30.44,ENE,78,3.0,13.0,93,0.00,,,0.02,Wunderground v.1.15,2013-04-23 09:55:00,
2013-04-23 06:00:00,42.4,40.5,30.44,NE,51,3.0,8.0,93,0.00,,,0.02,Wunderground v.1.15,2013-04-23 10:00:00,
2013-04-23 06:10:00,42.5,40.6,30.44,NE,37,3.0,8.0,93,0.00,,,0.02,Wunderground v.1.15,2013-04-23 10:10:00,
2013-04-23 06:20:00,42.6,41.0,30.44,NE,56,4.0,8.0,94,0.00,,,0.03,Wunderground v.1.15,2013-04-23 10:20:00,
2013-04-23 06:25:00,42.7,41.1,30.44,ENE,75,4.0,8.0,94,0.00,,,0.03,Wunderground v.1.15,2013-04-23 10:25:00,
2013-04-23 06:30:00,42.7,41.1,30.43,NE,44,3.0,8.0,94,0.00,,,0.03,Wunderground v.1.15,2013-04-23 10:30:00,
2013-04-23 06:35:00,42.9,41.3,30.43,East,79,3.0,8.0,94,0.00,,,0.03,Wunderground v.1.15,2013-04-23 10:35:00,
2013-04-23 06:40:00,43.0,41.1,30.42,East,86,4.0,4.0,93,0.00,,,0.03,Wunderground v.1.15,2013-04-23 10:40:00,
2013-04-23 06:45:00,43.1,41.2,30.42,ENE,61,4.0,8.0,93,0.00,,,0.03,Wunderground v.1.15,2013-04-23 10:45:00,
2013-04-23 06:55:00,43.3,41.4,30.42,ENE,71,4.0,8.0,93,0.00,,,0.03,Wunderground v.1.15,2013-04-23 10:55:00,
2013-04-23 07:00:00,43.4,41.5,30.42,NE,41,4.0,9.0,93,0.00,,,0.03,Wunderground v.1.15,2013-04-23 11:00:00,
2013-04-23 07:10:00,43.6,41.7,30.43,NE,43,4.0,4.0,93,0.00,,,0.03,Wunderground v.1.15,2013-04-23 11:10:00,
2013-04-23 07:15:00,43.7,41.8,30.43,ENE,58,4.0,9.0,93,0.00,,,0.03,Wunderground v.1.15,2013-04-23 11:15:00,
2013-04-23 07:20:00,43.8,41.9,30.43,NE,53,4.0,9.0,93,0.00,,,0.03,Wunderground v.1.15,2013-04-23 11:20:00,
2013-04-23 07:30:00,43.9,41.7,30.43,ENE,67,4.0,4.0,92,0.00,,,0.03,Wunderground v.1.15,2013-04-23 11:30:00,
2013-04-23 07:35:00,44.0,41.8,30.43,NE,37,4.0,9.0,92,0.00,,,0.03,Wunderground v.1.15,2013-04-23 11:35:00,
2013-04-23 07:40:00,44.0,41.8,30.43,ENE,68,3.0,3.0,92,0.00,,,0.03,Wunderground v.1.15,2013-04-23 11:40:00,
2013-04-23 07:45:00,44.1,41.9,30.43,NNE,20,4.0,7.0,92,0.00,,,0.04,Wunderground v.1.15,2013-04-23 11:45:00,
2013-04-23 07:50:00,44.1,41.9,30.42,NNE,32,4.0,9.0,92,0.00,,,0.04,Wunderground v.1.15,2013-04-23 11:50:00,
2013-04-23 07:55:00,44.2,42.0,30.42,ENE,76,4.0,9.0,92,0.00,,,0.04,Wunderground v.1.15,2013-04-23 11:55:00,
2013-04-23 08:00:00,44.2,42.0,30.42,NNW,342,4.0,4.0,92,0.00,,,0.04,Wunderground v.1.15,2013-04-23 12:00:00,
2013-04-23 08:10:00,44.3,42.1,30.42,ENE,58,4.0,4.0,92,0.00,,,0.04,Wunderground v.1.15,2013-04-23 12:10:00,
2013-04-23 08:15:00,44.3,42.1,30.42,ENE,61,4.0,10.0,92,0.00,,,0.04,Wunderground v.1.15,2013-04-23 12:15:00,
2013-04-23 08:20:00,44.4,42.2,30.41,East,88,3.0,3.0,92,0.00,,,0.04,Wunderground v.1.15,2013-04-23 12:20:00,
2013-04-23 08:25:00,44.5,42.3,30.41,ENE,64,3.0,10.0,92,0.00,,,0.04,Wunderground v.1.15,2013-04-23 12:25:00,
2013-04-23 08:30:00,44.5,42.3,30.41,ENE,58,4.0,10.0,92,0.00,,,0.04,Wunderground v.1.15,2013-04-23 12:30:00,
2013-04-23 08:35:00,44.5,42.3,30.41,ENE,75,4.0,10.0,92,0.00,,,0.04,Wunderground v.1.15,2013-04-23 12:35:00,
2013-04-23 08:45:00,44.6,42.4,30.41,NE,56,4.0,10.0,92,0.00,,,0.05,Wunderground v.1.15,2013-04-23 12:45:00,
2013-04-23 08:50:00,44.7,42.8,30.41,NE,41,4.0,4.0,93,0.00,,,0.05,Wunderground v.1.15,2013-04-23 12:50:00,
2013-04-23 08:55:00,44.8,42.9,30.41,ENE,75,3.0,10.0,93,0.00,,,0.05,Wunderground v.1.15,2013-04-23 12:55:00,
2013-04-23 09:00:00,44.9,43.0,30.41,NNE,27,3.0,3.0,93,0.00,,,0.05,Wunderground v.1.15,2013-04-23 13:00:00,
2013-04-23 09:10:00,44.9,43.0,30.40,NNE,27,3.0,13.0,93,0.00,,,0.05,Wunderground v.1.15,2013-04-23 13:10:00,
2013-04-23 09:20:00,45.0,42.8,30.40,ENE,73,3.0,13.0,92,0.00,,,0.05,Wunderground v.1.15,2013-04-23 13:20:00,
2013-04-23 09:25:00,45.0,42.8,30.40,ESE,110,4.0,13.0,92,0.00,,,0.05,Wunderground v.1.15,2013-04-23 13:25:00,
2013-04-23 09:30:00,45.1,43.2,30.40,North,8,4.0,4.0,93,0.00,,,0.05,Wunderground v.1.15,2013-04-23 13:30:00,
2013-04-23 09:35:00,45.2,43.3,30.39,NE,53,4.0,6.0,93,0.00,,,0.05,Wunderground v.1.15,2013-04-23 13:35:00,
2013-04-23 09:40:00,45.3,43.4,30.39,NE,45,4.0,13.0,93,0.00,,,0.06,Wunderground v.1.15,2013-04-23 13:40:00,
2013-04-23 09:45:00,45.4,43.5,30.39,East,84,5.0,13.0,93,0.00,,,0.06,Wunderground v.1.15,2013-04-23 13:45:00,
2013-04-23 09:50:00,45.5,43.6,30.40,ENE,73,4.0,4.0,93,0.00,,,0.06,Wunderground v.1.15,2013-04-23 13:50:00,
2013-04-23 10:00:00,45.5,43.3,30.39,East,86,4.0,4.0,92,0.00,,,0.06,Wunderground v.1.15,2013-04-23 14:00:00,
2013-04-23 10:10:00,45.5,43.3,30.39,NE,49,5.0,5.0,92,0.00,,,0.06,Wunderground v.1.15,2013-04-23 14:10:00,
2013-04-23 10:15:00,45.6,43.4,30.39,North,360,4.0,13.0,92,0.00,,,0.06,Wunderground v.1.15,2013-04-23 14:15:00,
2013-04-23 10:20:00,45.6,43.4,30.39,NE,52,3.0,13.0,92,0.00,,,0.06,Wunderground v.1.15,2013-04-23 14:20:00,
2013-04-23 10:25:00,45.6,43.4,30.39,ENE,63,4.0,13.0,92,0.00,,,0.06,Wunderground v.1.15,2013-04-23 14:25:00,
2013-04-23 10:30:00,45.5,43.3,30.39,NE,48,4.0,13.0,92,0.00,,,0.07,Wunderground v.1.15,2013-04-23 14:30:00,
2013-04-23 10:35:00,45.6,43.4,30.39,NE,52,4.0,13.0,92,0.00,,,0.07,Wunderground v.1.15,2013-04-23 14:35:00,
2013-04-23 10:40:00,45.5,43.3,30.38,NE,50,4.0,4.0,92,0.00,,,0.07,Wunderground v.1.15,2013-04-23 14:40:00,
2013-04-23 10:45:00,45.6,43.7,30.38,NE,37,4.0,13.0,93,0.00,,,0.07,Wunderground v.1.15,2013-04-23 14:45:00,
2013-04-23 10:55:00,45.7,43.5,30.38,NNE,21,5.0,13.0,92,0.00,,,0.08,Wunderground v.1.15,2013-04-23 14:55:00,
2013-04-23 11:00:00,45.7,43.8,30.38,NE,41,5.0,5.0,93,0.00,,,0.08,Wunderground v.1.15,2013-04-23 15:00:00,
2013-04-23 11:10:00,45.7,43.8,30.38,East,92,3.0,15.0,93,0.00,,,0.09,Wunderground v.1.15,2013-04-23 15:10:00,
2013-04-23 11:15:00,45.7,43.8,30.37,NNE,24,4.0,15.0,93,0.00,,,0.09,Wunderground v.1.15,2013-04-23 15:15:00,
2013-04-23 11:20:00,45.7,43.8,30.37,NW,311,4.0,15.0,93,0.00,,,0.09,Wunderground v.1.15,2013-04-23 15:20:00,
2013-04-23 11:30:00,45.9,44.0,30.36,North,359,4.0,15.0,93,0.04,,,0.10,Wunderground v.1.15,2013-04-23 15:30:00,
2013-04-23 11:35:00,45.8,43.9,30.36,ENE,62,4.0,15.0,93,0.04,,,0.10,Wunderground v.1.15,2013-04-23 15:35:00,
2013-04-23 11:40:00,45.9,44.0,30.36,East,86,4.0,4.0,93,0.04,,,0.10,Wunderground v.1.15,2013-04-23 15:40:00,
2013-04-23 11:45:00,46.0,44.1,30.36,NE,47,5.0,5.0,93,0.04,,,0.11,Wunderground v.1.15,2013-04-23 15:45:00,
2013-04-23 11:50:00,46.0,44.1,30.35,East,81,5.0,5.0,93,0.04,,,0.11,Wunderground v.1.15,2013-04-23 15:50:00,
2013-04-23 11:55:00,46.0,44.1,30.35,ENE,72,5.0,15.0,93,0.04,,,0.11,Wunderground v.1.15,2013-04-23 15:55:00,
2013-04-23 12:05:00,46.0,44.1,30.35,NE,48,4.0,12.0,93,0.04,,,0.12,Wunderground v.1.15,2013-04-23 16:05:00,
2013-04-23 12:10:00,46.1,44.2,30.34,ESE,120,3.0,12.0,93,0.04,,,0.12,Wunderground v.1.15,2013-04-23 16:10:00,
2013-04-23 12:15:00,46.1,44.2,30.34,North,1,3.0,12.0,93,0.00,,,0.12,Wunderground v.1.15,2013-04-23 16:15:00,
2013-04-23 12:20:00,46.2,44.3,30.34,East,91,5.0,5.0,93,0.00,,,0.12,Wunderground v.1.15,2013-04-23 16:20:00,
2013-04-23 12:25:00,46.2,44.3,30.33,ESE,115,6.0,6.0,93,0.00,,,0.12,Wunderground v.1.15,2013-04-23 16:25:00,
2013-04-23 12:30:00,46.2,44.3,30.33,East,82,5.0,5.0,93,0.00,,,0.13,Wunderground v.1.15,2013-04-23 16:30:00,
2013-04-23 12:40:00,46.4,44.5,30.33,ENE,63,4.0,4.0,93,0.00,,,0.13,Wunderground v.1.15,2013-04-23 16:40:00,
2013-04-23 12:45:00,46.4,44.5,30.32,NE,55,4.0,5.0,93,0.00,,,0.13,Wunderground v.1.15,2013-04-23 16:45:00,
2013-04-23 12:50:00,46.4,44.5,30.32,NNE,23,4.0,12.0,93,0.00,,,0.13,Wunderground v.1.15,2013-04-23 16:50:00,
2013-04-23 12:55:00,46.4,44.5,30.32,East,79,4.0,12.0,93,0.00,,,0.14,Wunderground v.1.15,2013-04-23 16:55:00,
2013-04-23 13:00:00,46.5,44.6,30.32,NNE,33,4.0,13.0,93,0.00,,,0.14,Wunderground v.1.15,2013-04-23 17:00:00,
2013-04-23 13:10:00,46.6,44.7,30.31,NE,56,4.0,13.0,93,0.00,,,0.14,Wunderground v.1.15,2013-04-23 17:10:00,
2013-04-23 13:15:00,46.6,44.7,30.31,East,79,4.0,13.0,93,0.00,,,0.14,Wunderground v.1.15,2013-04-23 17:15:00,
2013-04-23 13:20:00,46.6,44.7,30.30,NE,52,4.0,13.0,93,0.00,,,0.15,Wunderground v.1.15,2013-04-23 17:20:00,
2013-04-23 13:25:00,46.5,44.6,30.30,NNE,27,5.0,13.0,93,0.00,,,0.15,Wunderground v.1.15,2013-04-23 17:25:00,
2013-04-23 13:30:00,46.6,44.7,30.30,NE,49,5.0,13.0,93,0.00,,,0.15,Wunderground v.1.15,2013-04-23 17:30:00,
2013-04-23 13:35:00,46.5,44.6,30.29,ENE,63,5.0,13.0,93,0.00,,,0.15,Wunderground v.1.15,2013-04-23 17:35:00,
2013-04-23 13:40:00,46.5,44.6,30.29,ENE,64,5.0,5.0,93,0.00,,,0.16,Wunderground v.1.15,2013-04-23 17:40:00,
2013-04-23 13:45:00,46.4,44.5,30.29,ENE,57,4.0,13.0,93,0.00,,,0.16,Wunderground v.1.15,2013-04-23 17:45:00,
2013-04-23 13:55:00,46.4,44.5,30.28,NNE,32,4.0,6.0,93,0.00,,,0.17,Wunderground v.1.15,2013-04-23 17:55:00,
2013-04-23 14:00:00,46.5,44.9,30.28,NE,41,4.0,14.0,94,0.00,,,0.17,Wunderground v.1.15,2013-04-23 18:00:00,
2013-04-23 14:10:00,46.4,44.5,30.28,North,6,5.0,14.0,93,0.07,,,0.18,Wunderground v.1.15,2013-04-23 18:10:00,
2013-04-23 14:15:00,46.4,44.8,30.27,NE,34,5.0,14.0,94,0.06,,,0.19,Wunderground v.1.15,2013-04-23 18:15:00,
2013-04-23 14:20:00,46.4,44.8,30.27,NE,38,4.0,4.0,94,0.06,,,0.19,Wunderground v.1.15,2013-04-23 18:20:00,
2013-04-23 14:25:00,46.4,44.5,30.26,NE,49,4.0,5.0,93,0.07,,,0.20,Wunderground v.1.15,2013-04-23 18:25:00,
2013-04-23 14:30:00,46.3,44.4,30.26,NNE,21,4.0,14.0,93,0.07,,,0.20,Wunderground v.1.15,2013-04-23 18:30:00,
2013-04-23 14:40:00,46.1,44.2,30.26,ENE,61,5.0,5.0,93,0.08,,,0.22,Wunderground v.1.15,2013-04-23 18:40:00,
2013-04-23 14:45:00,46.1,44.2,30.25,ENE,75,5.0,14.0,93,0.08,,,0.22,Wunderground v.1.15,2013-04-23 18:45:00,
2013-04-23 14:50:00,46.0,44.1,30.25,NNE,20,5.0,5.0,93,0.06,,,0.22,Wunderground v.1.15,2013-04-23 18:50:00,
2013-04-23 14:55:00,45.9,44.0,30.24,NNE,24,5.0,14.0,93,0.04,,,0.23,Wunderground v.1.15,2013-04-23 18:55:00,
2013-04-23 15:00:00,45.9,44.0,30.24,ENE,75,6.0,6.0,93,0.04,,,0.23,Wunderground v.1.15,2013-04-23 19:00:00,
2013-04-23 15:10:00,46.0,44.1,30.24,NE,49,5.0,5.0,93,0.05,,,0.24,Wunderground v.1.15,2013-04-23 19:10:00,
2013-04-23 15:20:00,45.9,44.0,30.23,NNE,26,6.0,6.0,93,0.05,,,0.25,Wunderground v.1.15,2013-04-23 19:20:00,
2013-04-23 15:25:00,45.9,44.3,30.23,NE,41,6.0,16.0,94,0.05,,,0.25,Wunderground v.1.15,2013-04-23 19:25:00,
2013-04-23 15:30:00,46.0,44.4,30.23,NNE,24,5.0,5.0,94,0.05,,,0.25,Wunderground v.1.15,2013-04-23 19:30:00,
2013-04-23 15:35:00,45.9,44.3,30.22,ENE,63,5.0,8.0,94,0.05,,,0.26,Wunderground v.1.15,2013-04-23 19:35:00,
2013-04-23 15:40:00,45.9,44.0,30.22,North,11,7.0,16.0,93,0.05,,,0.26,Wunderground v.1.15,2013-04-23 19:40:00,
2013-04-23 15:50:00,45.9,44.3,30.21,NE,49,5.0,5.0,94,0.04,,,0.27,Wunderground v.1.15,2013-04-23 19:50:00,
2013-04-23 15:55:00,45.9,44.3,30.21,North,3,6.0,6.0,94,0.07,,,0.28,Wunderground v.1.15,2013-04-23 19:55:00,
2013-04-23 16:00:00,45.9,44.3,30.20,ENE,62,6.0,19.0,94,0.07,,,0.28,Wunderground v.1.15,2013-04-23 20:00:00,
2013-04-23 16:10:00,45.8,44.2,30.20,East,97,5.0,19.0,94,0.06,,,0.29,Wunderground v.1.15,2013-04-23 20:10:00,
2013-04-23 16:15:00,45.8,43.9,30.20,North,1,5.0,19.0,93,0.09,,,0.30,Wunderground v.1.15,2013-04-23 20:15:00,
2013-04-23 16:20:00,45.6,43.7,30.19,North,1,6.0,6.0,93,0.08,,,0.31,Wunderground v.1.15,2013-04-23 20:20:00,
2013-04-23 16:25:00,45.6,43.7,30.19,NE,49,6.0,19.0,93,0.13,,,0.32,Wunderground v.1.15,2013-04-23 20:25:00,
2013-04-23 16:30:00,45.6,44.0,30.19,ENE,58,5.0,19.0,94,0.08,,,0.32,Wunderground v.1.15,2013-04-23 20:30:00,
2013-04-23 16:35:00,45.6,44.0,30.19,North,7,6.0,19.0,94,0.08,,,0.33,Wunderground v.1.15,2013-04-23 20:35:00,
2013-04-23 16:40:00,45.7,44.1,30.18,NE,48,5.0,19.0,94,0.08,,,0.34,Wunderground v.1.15,2013-04-23 20:40:00,
2013-04-23 16:50:00,45.6,44.0,30.17,North,358,6.0,19.0,94,0.07,,,0.35,Wunderground v.1.15,2013-04-23 20:50:00,
2013-04-23 17:00:00,45.6,44.0,30.16,NNE,30,6.0,17.0,94,0.08,,,0.37,Wunderground v.1.15,2013-04-23 21:00:00,
2013-04-23 17:10:00,45.6,44.0,30.16,NE,39,6.0,6.0,94,0.10,,,0.38,Wunderground v.1.15,2013-04-23 21:10:00,
2013-04-23 17:20:00,45.5,43.9,30.16,NE,36,7.0,17.0,94,0.09,,,0.40,Wunderground v.1.15,2013-04-23 21:20:00,
2013-04-23 17:25:00,45.5,43.9,30.16,NE,49,8.0,17.0,94,0.09,,,0.40,Wunderground v.1.15,2013-04-23 21:25:00,
2013-04-23 17:30:00,45.6,44.0,30.16,NE,34,7.0,17.0,94,0.07,,,0.41,Wunderground v.1.15,2013-04-23 21:30:00,
2013-04-23 17:35:00,45.6,44.0,30.16,NNE,15,6.0,17.0,94,0.11,,,0.42,Wunderground v.1.15,2013-04-23 21:35:00,
2013-04-23 17:40:00,45.5,43.9,30.16,North,8,6.0,6.0,94,0.09,,,0.42,Wunderground v.1.15,2013-04-23 21:40:00,
2013-04-23 17:45:00,45.5,43.9,30.17,ENE,58,5.0,17.0,94,0.08,,,0.43,Wunderground v.1.15,2013-04-23 21:45:00,
2013-04-23 17:50:00,45.4,43.8,30.16,ENE,65,5.0,5.0,94,0.11,,,0.44,Wunderground v.1.15,2013-04-23 21:50:00,
2013-04-23 18:00:00,45.2,43.6,30.16,NE,36,6.0,18.0,94,0.05,,,0.45,Wunderground v.1.15,2013-04-23 22:00:00,
2013-04-23 18:10:00,45.1,43.5,30.16,NE,56,5.0,18.0,94,0.10,,,0.46,Wunderground v.1.15,2013-04-23 22:10:00,
2013-04-23 18:15:00,45.1,43.5,30.16,ENE,58,7.0,18.0,94,0.08,,,0.47,Wunderground v.1.15,2013-04-23 22:15:00,
2013-04-23 18:20:00,45.0,43.4,30.16,NNW,330,7.0,18.0,94,0.09,,,0.48,Wunderground v.1.15,2013-04-23 22:20:00,
2013-04-23 18:25:00,45.0,43.4,30.16,North,354,6.0,18.0,94,0.09,,,0.48,Wunderground v.1.15,2013-04-23 22:25:00,
2013-04-23 18:35:00,44.9,43.3,30.15,NNE,27,6.0,18.0,94,0.05,,,0.49,Wunderground v.1.15,2013-04-23 22:35:00,
2013-04-23 18:40:00,44.9,43.3,30.15,NE,46,6.0,18.0,94,0.11,,,0.50,Wunderground v.1.15,2013-04-23 22:40:00,
2013-04-23 18:45:00,44.9,43.3,30.15,ENE,75,6.0,18.0,94,0.06,,,0.50,Wunderground v.1.15,2013-04-23 22:45:00,
2013-04-23 18:50:00,44.7,43.1,30.15,North,359,7.0,18.0,94,0.06,,,0.51,Wunderground v.1.15,2013-04-23 22:50:00,
2013-04-23 18:55:00,44.6,43.0,30.15,NNE,13,7.0,18.0,94,0.12,,,0.52,Wunderground v.1.15,2013-04-23 22:55:00,
2013-04-23 19:00:00,44.6,43.0,30.15,NNE,30,7.0,15.0,94,0.07,,,0.53,Wunderground v.1.15,2013-04-23 23:00:00,
2013-04-23 19:10:00,44.4,42.8,30.14,North,359,7.0,7.0,94,0.10,,,0.54,Wunderground v.1.15,2013-04-23 23:10:00,
2013-04-23 19:15:00,44.3,42.7,30.14,North,6,7.0,8.0,94,0.07,,,0.54,Wunderground v.1.15,2013-04-23 23:15:00,
2013-04-23 19:20:00,44.3,42.7,30.13,North,353,6.0,15.0,94,0.05,,,0.55,Wunderground v.1.15,2013-04-23 23:20:00,
2013-04-23 19:25:00,44.2,42.6,30.13,ENE,64,7.0,15.0,94,0.05,,,0.55,Wunderground v.1.15,2013-04-23 23:25:00,
2013-04-23 19:30:00,44.2,42.6,30.13,NNW,342,7.0,7.0,94,0.08,,,0.56,Wunderground v.1.15,2013-04-23 23:30:00,
2013-04-23 19:35:00,44.1,42.5,30.13,North,1,7.0,10.0,94,0.07,,,0.57,Wunderground v.1.15,2013-04-23 23:35:00,
2013-04-23 19:40:00,44.1,42.5,30.13,ENE,59,8.0,8.0,94,0.11,,,0.58,Wunderground v.1.15,2013-04-23 23:40:00,
2013-04-23 19:50:00,44.1,42.5,30.12,ENE,75,8.0,15.0,94,0.08,,,0.59,Wunderground v.1.15,2013-04-23 23:50:00,
2013-04-23 19:55:00,44.1,42.5,30.11,North,359,8.0,15.0,94,0.13,,,0.60,Wunderground v.1.15,2013-04-23 23:55:00,
2013-04-23 20:00:00,44.1,42.5,30.11,NE,41,8.0,8.0,94,0.08,,,0.61,Wunderground v.1.15,2013-04-24 00:00:00,
2013-04-23 20:10:00,44.1,42.5,30.11,NE,38,6.0,17.0,94,0.10,,,0.63,Wunderground v.1.15,2013-04-24 00:10:00,
2013-04-23 20:15:00,44.1,42.5,30.11,NNE,23,7.0,17.0,94,0.12,,,0.64,Wunderground v.1.15,2013-04-24 00:15:00,
2013-04-23 20:25:00,44.2,42.6,30.11,North,359,7.0,10.0,94,0.06,,,0.65,Wunderground v.1.15,2013-04-24 00:25:00,
2013-04-23 20:30:00,44.2,42.6,30.10,NNE,31,8.0,17.0,94,0.06,,,0.65,Wunderground v.1.15,2013-04-24 00:30:00,
2013-04-23 20:35:00,44.2,42.6,30.10,North,1,7.0,17.0,94,0.05,,,0.66,Wunderground v.1.15,2013-04-24 00:35:00,
2013-04-23 20:40:00,44.2,42.6,30.10,NNE,23,7.0,7.0,94,0.05,,,0.66,Wunderground v.1.15,2013-04-24 00:40:00,
2013-04-23 20:45:00,44.2,42.6,30.10,NE,53,7.0,17.0,94,0.05,,,0.66,Wunderground v.1.15,2013-04-24 00:45:00,
2013-04-23 20:50:00,44.2,42.6,30.10,NNE,25,7.0,17.0,94,0.04,,,0.67,Wunderground v.1.15,2013-04-24 00:50:00,
2013-04-23 21:00:00,44.3,42.7,30.10,North,352,7.0,7.0,94,0.08,,,0.68,Wunderground v.1.15,2013-04-24 01:00:00,
2013-04-23 21:10:00,44.3,42.7,30.10,North,359,7.0,20.0,94,0.11,,,0.70,Wunderground v.1.15,2013-04-24 01:10:00,
2013-04-23 21:15:00,44.3,42.7,30.10,ENE,59,8.0,20.0,94,0.10,,,0.71,Wunderground v.1.15,2013-04-24 01:15:00,
2013-04-23 21:20:00,44.2,42.6,30.09,NNE,28,7.0,20.0,94,0.15,,,0.72,Wunderground v.1.15,2013-04-24 01:20:00,
2013-04-23 21:25:00,44.2,42.6,30.09,North,354,8.0,20.0,94,0.13,,,0.73,Wunderground v.1.15,2013-04-24 01:25:00,
2013-04-23 21:35:00,44.3,42.4,30.08,NE,34,8.0,20.0,93,0.11,,,0.75,Wunderground v.1.15,2013-04-24 01:35:00,
2013-04-23 21:45:00,44.2,42.3,30.08,North,354,8.0,13.0,93,0.17,,,0.78,Wunderground v.1.15,2013-04-24 01:45:00,
2013-04-23 21:50:00,44.2,42.3,30.08,North,5,8.0,8.0,93,0.13,,,0.79,Wunderground v.1.15,2013-04-24 01:50:00,
2013-04-23 21:55:00,44.2,42.3,30.08,NE,52,7.0,20.0,93,0.19,,,0.80,Wunderground v.1.15,2013-04-24 01:55:00,
2013-04-23 22:00:00,44.2,42.3,30.08,NNE,15,8.0,8.0,93,0.22,,,0.82,Wunderground v.1.15,2013-04-24 02:00:00,
2013-04-23 22:10:00,44.1,42.5,30.07,NNW,327,6.0,6.0,94,0.20,,,0.84,Wunderground v.1.15,2013-04-24 02:10:00,
2013-04-23 22:20:00,44.1,42.2,30.06,North,2,7.0,19.0,93,0.12,,,0.87,Wunderground v.1.15,2013-04-24 02:20:00,
2013-04-23 22:25:00,44.1,42.5,30.05,NNE,18,7.0,19.0,94,0.17,,,0.88,Wunderground v.1.15,2013-04-24 02:25:00,
2013-04-23 22:35:00,44.1,42.2,30.04,NNE,14,7.0,19.0,93,0.15,,,0.91,Wunderground v.1.15,2013-04-24 02:35:00,
2013-04-23 22:40:00,44.1,42.2,30.04,NE,39,7.0,19.0,93,0.20,,,0.92,Wunderground v.1.15,2013-04-24 02:40:00,
2013-04-23 22:50:00,44.2,42.3,30.03,NNW,333,9.0,19.0,93,0.16,,,0.94,Wunderground v.1.15,2013-04-24 02:50:00,
2013-04-23 22:55:00,44.2,42.3,30.03,NE,47,9.0,19.0,93,0.10,,,0.95,Wunderground v.1.15,2013-04-24 02:55:00,
2013-04-23 23:10:00,44.1,42.2,30.02,North,359,9.0,22.0,93,0.13,,,0.99,Wunderground v.1.15,2013-04-24 03:10:00,
2013-04-23 23:20:00,44.1,42.2,30.01,NNE,18,9.0,9.0,93,0.14,,,1.01,Wunderground v.1.15,2013-04-24 03:20:00,
2013-04-23 23:25:00,44.1,42.2,30.01,NNW,348,9.0,22.0,93,0.15,,,1.03,Wunderground v.1.15,2013-04-24 03:25:00,
2013-04-23 23:30:00,44.1,42.2,30.01,North,358,7.0,22.0,93,0.20,,,1.04,Wunderground v.1.15,2013-04-24 03:30:00,
2013-04-23 23:35:00,44.2,42.3,30.01,ENE,58,9.0,22.0,93,0.12,,,1.05,Wunderground v.1.15,2013-04-24 03:35:00,
2013-04-23 23:45:00,44.2,42.3,30.00,WNW,288,9.0,22.0,93,0.17,,,1.08,Wunderground v.1.15,2013-04-24 03:45:00,
2013-04-23 23:50:00,44.2,42.3,30.00,NNE,22,9.0,9.0,93,0.13,,,1.09,Wunderground v.1.15,2013-04-24 03:50:00,